軌道要素
Epoch 2019 July 16.0 TT = JDT 2458680.5
T 2019 July 22.33600 TT Rudenko
q 4.3055217 (2000.0) P Q
n 0.06424975 Peri. 36.92062 +0.16912810 -0.97789452
a 6.1738361 Node 43.72698 +0.85643054 +0.08407525
e 0.3026181 Incl. 10.24634 +0.48777292 +0.19145145
P 15.3
From 117 observations 2003 Nov. 21-2020 May 5, mean residual 0".5.
|